TimeEDT,TemperatureF,Dew PointF,Humidity,Sea Level PressureIn,VisibilityMPH,Wind Direction,Wind SpeedMPH,Gust SpeedMPH,PrecipitationIn,Events,Conditions,WindDirDegrees,DateUTC
12:54 AM,57.9,46.9,67,29.86,10.0,Calm,Calm,-,N/A,,Mostly Cloudy,0,2013-03-17 04:54:00
1:54 AM,57.9,48.0,70,29.87,10.0,Calm,Calm,-,N/A,,Mostly Cloudy,0,2013-03-17 05:54:00
2:54 AM,55.9,46.0,69,29.88,10.0,NNW,5.8,-,N/A,,Scattered Clouds,340,2013-03-17 06:54:00
3:54 AM,55.0,46.0,72,29.90,10.0,Calm,Calm,-,N/A,,Overcast,0,2013-03-17 07:54:00
4:54 AM,55.0,46.0,72,29.90,10.0,Calm,Calm,-,N/A,,Mostly Cloudy,0,2013-03-17 08:54:00
5:54 AM,51.1,46.0,83,29.93,10.0,SSE,5.8,-,N/A,,Mostly Cloudy,150,2013-03-17 09:54:00
6:34 AM,48.2,46.4,93,29.96,4.0,SSE,12.7,-,N/A,,Overcast,150,2013-03-17 10:34:00
6:54 AM,46.9,44.1,90,29.97,6.0,SE,15.0,19.6,N/A,,Overcast,130,2013-03-17 10:54:00
7:54 AM,46.0,41.0,83,30.00,6.0,SE,10.4,-,N/A,,Haze,140,2013-03-17 11:54:00
8:54 AM,45.0,39.9,82,30.05,5.0,SSE,11.5,-,0.00,Rain,Light Rain,150,2013-03-17 12:54:00
9:49 AM,44.6,39.2,81,30.08,4.0,SE,8.1,-,0.01,Rain,Light Rain,140,2013-03-17 13:49:00
9:52 AM,44.6,39.2,81,30.08,4.0,SSE,10.4,-,0.01,,Overcast,150,2013-03-17 13:52:00
9:54 AM,44.1,39.9,85,30.07,4.0,SE,10.4,-,0.01,,Overcast,140,2013-03-17 13:54:00
10:27 AM,42.8,39.2,87,30.08,5.0,SSE,8.1,-,0.00,,Overcast,160,2013-03-17 14:27:00
10:46 AM,42.8,39.2,87,30.08,6.0,SE,9.2,-,0.00,,Overcast,140,2013-03-17 14:46:00
10:54 AM,42.1,39.0,89,30.09,6.0,SSE,9.2,-,0.00,,Overcast,150,2013-03-17 14:54:00
11:21 AM,42.8,39.2,87,30.10,4.0,SE,9.2,-,0.00,Rain,Light Rain,140,2013-03-17 15:21:00
11:54 AM,41.0,39.0,93,30.12,3.0,SE,9.2,-,0.01,Rain,Light Rain,140,2013-03-17 15:54:00
12:54 PM,41.0,37.9,89,30.12,4.0,SSE,10.4,-,0.00,,Overcast,150,2013-03-17 16:54:00
1:54 PM,41.0,37.9,89,30.10,5.0,SSE,8.1,-,N/A,,Overcast,150,2013-03-17 17:54:00
2:54 PM,39.9,37.0,89,30.10,4.0,SE,9.2,-,0.00,Rain,Light Rain,130,2013-03-17 18:54:00
3:54 PM,39.9,37.0,89,30.09,6.0,SE,6.9,-,N/A,,Overcast,130,2013-03-17 19:54:00
4:54 PM,39.9,37.0,89,30.10,5.0,SSE,8.1,-,N/A,,Overcast,150,2013-03-17 20:54:00
5:54 PM,39.0,36.0,89,30.12,3.0,SE,9.2,-,N/A,,Overcast,130,2013-03-17 21:54:00
6:54 PM,37.9,36.0,93,30.14,3.0,ESE,9.2,-,0.02,,Overcast,110,2013-03-17 22:54:00
7:05 PM,37.4,35.6,93,30.13,3.0,SE,9.2,-,N/A,,Overcast,130,2013-03-17 23:05:00
7:54 PM,37.9,36.0,93,30.16,4.0,SSE,3.5,-,0.05,Rain,Light Rain,160,2013-03-17 23:54:00
8:54 PM,37.9,35.1,89,30.17,4.0,ESE,11.5,-,0.12,Rain,Rain,120,2013-03-18 00:54:00
9:49 PM,37.4,33.8,87,30.19,4.0,SE,10.4,-,0.17,Rain,Rain,130,2013-03-18 01:49:00
9:54 PM,36.0,34.0,93,30.21,4.0,SE,9.2,-,0.18,Rain,Light Rain,140,2013-03-18 01:54:00
10:54 PM,37.0,34.0,89,30.22,6.0,ESE,8.1,-,0.07,Rain,Light Rain,120,2013-03-18 02:54:00
11:05 PM,37.4,33.8,87,30.20,5.0,SE,10.4,-,0.02,Rain,Rain,130,2013-03-18 03:05:00
11:54 PM,36.0,34.0,93,30.22,7.0,SE,9.2,-,0.07,Rain,Light Rain,130,2013-03-18 03:54:00